Location: Cormont
(50.5693°N, 1.7416°E)
Time: 16:43:51
(UTC+00:00)

STARLINK-28 - Pass Details

Date: 21 October 2019
Orbit: 548 x 551 km, 53.0° (Epoch: 17 November)

Event Time Altitude Azimuth Distance (km) Brightness Sun altitude
Rises 17:28:36 0° 265° (W) 2,717 9.8 -6.9°
Reaches altitude 10° 17:30:51 10° 269° (W) 1,824 8.0 -7.2°
Maximum altitude 17:34:59 65° 351° (N) 609 3.8 -7.9°
Enters shadow 17:38:58 11° 74° (ENE) 1,771 5.5 -8.5°
